Location: Alta
(39.2070°N, 120.8111°W)
Time: 03:05:16
(UTC+00:00)

JUGNU - Visible Passes

Search period start: 17 April 2024 00:00
Search period end: 27 April 2024 00:00
Orbit: 835 x 862 km, 20.0° (Epoch: 16 April)

Date Brightness Start Highest point End Pass type
(mag) Time Alt. Az. Time Alt. Az. Time Alt. Az.
17 Apr ? 04:20:16 10° S 04:20:43 10° S 04:20:43 10° S visible
18 Apr ? 04:04:12 10° S 04:05:15 10° S 04:06:09 10° SSE visible
19 Apr ? 03:48:16 10° S 03:49:27 11° S 03:50:38 10° SSE visible
20 Apr ? 03:32:24 10° S 03:33:38 11° S 03:34:52 10° SSE visible
21 Apr ? 03:16:36 10° SSW 03:17:49 11° S 03:19:03 10° SSE visible
